weather.gov     
National Weather Service

Regional Weather Roundup
NWS Homepage
This page is being discontinued on March 12, 2014.
The same data is available at this site. Please update your bookmarks.
Thank you, and we apologize for the inconvenience.
Please send an email to SR-SRH.Webmaster@noaa.gov with any concerns.


Current Version
Previous Version:    01  02  03  04  05  06  07  08  09  10  11  12  13  14  15  16  17  18  19  20  21  22  23  24  25  26  
[Printable]
615
ASUS42 KTBW 260910
RWRFL
FLORIDA REGIONAL WEATHER ROUNDUP
NATIONAL WEATHER SERVICE TAMPA BAY RUSKIN FL
500 AM EDT SUN OCT 26 2014

NOTE: "FAIR" INDICATES FEW OR NO CLOUDS BELOW 12,000 FEET WITH NO
SIGNIFICANT WEATHER AND/OR OBSTRUCTIONS TO VISIBILITY.


FLZ001>010-012>015-112-114-115-261000-
PANHANDLE FLORIDA

CITY           SKY/WX    TMP DP  RH WIND       PRES   REMARKS
PENSACOLA      CLEAR     57  53  86 CALM      30.01F
PENSACOLA NAS  CLEAR     53  53 100 CALM      30.01F FOG
MILTON NAS     CLEAR     53  50  89 W5        30.02F
CRESTVIEW      CLEAR     49  47  93 CALM      30.02F
DUKE FIELD     FAIR      49  47  93 CALM      30.01F
VALPARAISO     CLEAR     56  51  83 CALM      30.00F
MARY ESTHER    CLEAR     53  48  83 N3        30.00F
TRI COUNTY     FAIR      50  50 100 CALM      30.01S
PANAMA CITY    FAIR      52  49  89 CALM      29.99F
TYNDALL AFB    CLEAR     60  52  75 N5        30.00F
APALACHICOLA   CLEAR     54  49  83 N5        29.99S

STATION/POSITION SKY/WX   TEMP    WIND        PRES    WAVE   SWELL
                          AIR SEA DIR/SP/G            HT/PER HT/PER
                          (F)     (DEG/KT/KT) (MB)    (FT/S) (FT/S)
30.1N   87.6W              73 77  340/  4/  6 1016.1F   1
29.2N   88.2W              74 78   10/  8/ 10 1017.1F   2/ 4   2/ 4
28.8N   86.0W              75 79   20/ 12/ 14 1015.6F   3/ 4
PANAMA CITY BEAC           61 75   30/  4/  5 1015.8F
CAPE SAN BLAS    NOT AVBL
TOWER C                    71      10/ 13/ 14 1015.4S
28.5N   84.5W              76 80   30/  8/ 12 1015.1F   2/ 4   2/ 4

$$
FLZ011-016>038-118-127-128-134-139-239-261000-
NORTH FLORIDA

CITY           SKY/WX    TMP DP  RH WIND       PRES   REMARKS
MARIANNA       LGT RAIN  52  52 100 CALM      29.99F
TALLAHASSEE    CLEAR     48  43  82 CALM      29.99F
PERRY          CLEAR     46  46 100 CALM      29.99S
CROSS CITY       N/A     47  44  90 CALM      29.98S
LAKE CITY      FAIR      46  46 100 CALM      29.97S
GAINESVILLE    CLEAR     47  46  97 CALM      29.97S
MAYPORT NAS    CLEAR     61  58  90 W6        29.95F
JACKSONVILLE   CLEAR     51  49  92 CALM      29.95F
JAX NAS        CLEAR     59  50  72 SW3       29.97S
JAX CRAIG      CLEAR     53  51  93 CALM      29.96F
JAX CECIL      CLEAR     45  43  93 CALM      29.97S
FERNANDINA BEA FAIR      61  54  77 CALM      29.94F
ST AUGUSTINE   PTCLDY    57  55  93 W3        29.96F

STATION/POSITION SKY/WX   TEMP    WIND        PRES    WAVE   SWELL
                          AIR SEA DIR/SP/G            HT/PER HT/PER
                          (F)     (DEG/KT/KT) (MB)    (FT/S) (FT/S)
SHELL POINT                60     360/  6/  8   N/A
KEATON BEACH               56      40/  2/  2 1015.3F
CEDAR KEY                  64      20/  2/  2 1015.6R
FERNANDINA                 60 73  240/  2/  4 1013.8F
30.7N   81.3W                 75                N/A     2/10
MAYPORT                    62 75  300/  5/  6   N/A
31.4N   80.9W              69 74  270/ 12/ 14 1013.7F   2/ 8   2/ 8
ST AUGUSTINE               59     280/  7/  8 1015.0S

$$
FLZ040-043>046-052-053-057-058-063-144-261000-
INTERIOR CENTRAL FLORIDA

CITY           SKY/WX    TMP DP  RH WIND       PRES   REMARKS
OCALA          CLEAR     46  45  93 CALM      29.97F
THE VILLAGES     N/A     52  50  93 CALM      29.88S
LEESBURG       FAIR      57  55  93 W5        29.98S
SANFORD        CLEAR     56  54  93 W6        29.96S
ORLANDO EXEC   CLEAR     61  57  87 NW3       29.96S
ORLANDO INTL   CLEAR     59  56  89 W3        29.97S
WINTER HAVEN   CLEAR     59  57  93 NW5       29.97F
LAKELAND       CLEAR     54  54 100 N3        29.96F
BARTOW         FAIR      55  55 100 CALM      29.97S
OKEECHOBEE       N/A     59  57  94 MISG        N/A

$$
FLZ041-047-054-059-064-141-147-261000-
EAST CENTRAL FLORIDA

CITY           SKY/WX    TMP DP  RH WIND       PRES   REMARKS
DAYTONA BEACH  CLEAR     56  52  86 W3        29.96S
DELAND         SUNNY     52  50  93 CALM      29.97S
JFK SPACE CTR  CLEAR     60  57  91 W3        29.95R
CAPE CANAVERAL CLEAR     60  56  88 NW5       29.94R
PATRICK AFB    CLEAR     68  59  71 NW10      29.94S
MELBOURNE      CLEAR     57  54  89 NW6       29.94S
VERO BEACH     CLEAR     61  57  87 NW7       29.93S
FT PIERCE      CLEAR     65  59  81 NW6       29.92S
STUART         CLEAR     66  61  82 N6        29.92S

STATION/POSITION SKY/WX   TEMP    WIND        PRES    WAVE   SWELL
                          AIR SEA DIR/SP/G            HT/PER HT/PER
                          (F)     (DEG/KT/KT) (MB)    (FT/S) (FT/S)
28.5N   80.2W              73 80  340/ 10/ 16 1013.7F
28.9N   78.5W              75 81  360/  8/ 14 1013.3R   4/ 7   3/ 7
TRIDENT PIER               68 78  300/  4/  5 1013.5R
28.4N   80.5W                 77                N/A     2/ 7
27.6N   80.2W                 79                N/A     3/ 7   2/11

$$
FLZ050-056-061-142-242-148-248-149-249-151-251-155-255-
160-260-261000-
WEST CENTRAL FLORIDA

CITY           SKY/WX    TMP DP  RH WIND       PRES   REMARKS
CRYSTAL RIVER  FAIR      46  45  93 CALM      29.98S
INVERNESS      FAIR      46  46 100 CALM      29.98F FOG
BROOKSVILLE    CLEAR     49  48  97 CALM      29.98F
ZEPHYRHILLS      N/A     46  46 100 CALM      29.98S FOG
CLEARWATER     CLEAR     61  58  90 E3        29.97S
TAMPA INTL     CLEAR     59  55  87 CALM      29.98S
PLANT CITY     CLEAR     55 N/A N/A CALM      29.99S
MACDILL AFB    CLEAR     57  56  97 NE2       29.98R
ST PETERSBURG  CLEAR     68  61  78 N5        29.96S
SARASOTA       CLEAR     59  57  93 NE5       29.95F
VENICE           N/A     57  55  94 NE7       29.96F

STATION/POSITION SKY/WX   TEMP    WIND        PRES    WAVE   SWELL
                          AIR SEA DIR/SP/G            HT/PER HT/PER
                          (F)     (DEG/KT/KT) (MB)    (FT/S) (FT/S)
CEDAR KEY                  64      20/  2/  2 1015.6R
28.5N   84.5W              76 80   30/  8/ 12 1015.1F   2/ 4   2/ 4
27.3N   84.3W                 81                N/A     3/ 4
CLEARWATER BEACH NOT AVBL
MIDDLE TAMPA BAY           67      90/  6/  7 1014.9S
VENICE                     62 77   40/  7/  8 1014.0F

$$
FLZ066-069-070-075>078-162-262-165-265-261000-
SOUTHWEST FLORIDA AND KEYS

CITY           SKY/WX    TMP DP  RH WIND       PRES   REMARKS
PUNTA GORDA    CLEAR     59  56  89 NE5       29.97F
FT MYERS       CLEAR     60  57  89 NE3       29.94F
SOUTHWEST INTL CLEAR     62  58  86 N6        29.94F
NAPLES         CLEAR     66  60  81 NE7       29.93F
MARATHON       CLEAR     73  64  73 NE12      29.91R
KEY WEST NAS   CLEAR     74  67  78 NE12      29.91S
KEY WEST INTL  CLEAR     74  68  81 N7        29.92R

STATION/POSITION SKY/WX   TEMP    WIND        PRES    WAVE   SWELL
                          AIR SEA DIR/SP/G            HT/PER HT/PER
                          (F)     (DEG/KT/KT) (MB)    (FT/S) (FT/S)
VENICE                     62 77   40/  7/  8 1014.0F
NAPLES                     66 80   30/  6/ 10 1014.1F
26.0N   85.6W              75 80   30/ 12/ 14 1015.3F   3/ 5   2/ 7
DRY TORTUGAS               78      30/ 10/ 13 1012.9F
NW FL BAY                  72      40/ 12/ 13 1012.9F
SAND KEY                   76      40/ 13/ 16 1012.8R
SOMBRERO KEY               74      20/ 16/ 18 1013.1R
LONG KEY                   73 76   20/ 15/ 18 1013.6R
MOLASSES REEF              73 81  360/ 16/ 18 1012.2R

$$
FLZ067-068-071>074-168-172>174-261000-
SOUTHEAST FLORIDA

CITY           SKY/WX    TMP DP  RH WIND       PRES   REMARKS
W PALM BEACH   PTCLDY    66  64  93 NW6       29.89S
FT LAUDER-EXEC CLEAR     69  63  81 N7        29.89F
FT LAUDERDALE  PTCLDY    70  64  81 NW7       29.89S
POMPANO BEACH  PTCLDY    70  63  78 NW9       29.90S
PEMBROKE PINES PTCLDY    69  63  81 NW10      29.91S
OPA LOCKA      CLEAR     70  63  78 N10       29.90F
MIAMI          PTCLDY    70  64  81 NW6       29.90S
WEST KENDALL   CLEAR     70  64  81 N7        29.91S
HOMESTEAD      CLEAR     67  64  90 NW8       29.90S

STATION/POSITION SKY/WX   TEMP    WIND        PRES    WAVE   SWELL
                          AIR SEA DIR/SP/G            HT/PER HT/PER
                          (F)     (DEG/KT/KT) (MB)    (FT/S) (FT/S)
PORT EVERGLADES            71     320/  8/ 11 1012.1
VIRGINIA KEY               72 79  350/  5/ 11 1012.7S
LAKE WORTH                 69 78  280/  7/  8 1012.1R
FOWEY ROCKS                74 80  330/ 17/ 19 1012.3S
SETTLEMENT POINT           76      20/ 16/ 17 1012.8F

$$





U.S. Dept. of Commerce
NOAA National Weather Service
1325 East West Highway
Silver Spring, MD 20910
E-mail: w-nws.webmaster@noaa.gov
Page last modified: May 16, 2007
NATIONAL WEATHER SERVICE: for Safety, for Work, for Fun - FOR LIFE